ICEYE-X4 (44390 NORAD) Tracking and Keplerian Element Data

This shows tracking and keplerian element data for the satellite.

Feedback or suggestion? Click here.




ElementValue
Catalog44390
NameICEYE-X4
Epoch Orbit30600
Epoch Day35.1605446
Epoch Year2025
RAAN37.6059
Inclination97.9047
Eccentricity0.001514
Argument of Perigee230.9926
Mean Anonmoly128.9958
Mean Motion15.16620106
Decay Rate0.00015529
L11 44390U 19038D 25035.16054460 .00015529 00000+0 79483-3 0 9997
L22 44390 97.9047 37.6059 0015140 230.9926 128.9958 15.16620106306009



Live tracking and technical data element details for ICEYE-X4 (NORAD 44390). ICEYE-X4 can be tracked NOW for your location showing map with azimuth and elevation plus other details from your city location.







IsCatalogInMostPopularTable: catalog: 44390, numindb: 369
Update: records affected: 1



GetName: 44390 ICEYE-X4

Hit Count: updated at: Wed, 18 Jun 2025 04:42:24 GMT